Regional Weather Roundup
Issued by NWS San Diego, CA

Home | Current Version | Previous Version | Text Only | Print | Product List | Glossary On
Versions: 1 2 3 4 5 6 7 8 9 10 11 12 13 14 15 16 17 18 19 20 21 22 23 24 25 26 27
000
ASUS46 KSGX 010211
RWRSGX

SAN DIEGO HOURLY WEATHER ROUNDUP
NATIONAL WEATHER SERVICE SAN DIEGO CA
700 PM PDT SAT APR 30 2016

NOTE: "FAIR" INDICATES FEW OR NO CLOUDS BELOW 12,000 FEET WITH NO
SIGNIFICANT WEATHER AND/OR OBSTRUCTIONS TO VISIBILITY.

CAZ042-043-060-061-PZZ750-775-010300-

GREATER SAN DIEGO AREA

CITY           SKY/WX    TMP DP  RH WIND       PRES   REMARKS
LINDBERGH FLD  PTCLDY    64  50  60 NW8       29.84R
POINT LOMA       N/A     61  61 100 W14         N/A
NATIONAL CITY    N/A     63  54  73 N6        29.84R
CHULA VISTA      N/A     62  54  73 W2        29.75R
IMPERIAL BEACH MOCLDY    64  52  64 W10       29.84R
BROWN FIELD    CLEAR     59  49  69 VRB5      29.83R
MIRAMAR MCAS   PTCLDY    64  50  60 W7        29.82R
MONTGOMERY FLD PTCLDY    62  50  64 W8        29.83R

$$

NORTH SAN DIEGO COUNTY

CITY           SKY/WX    TMP DP  RH WIND       PRES   REMARKS
CAMP PENDLETON PTCLDY    61  53  75 SW8       29.81R
OCEANSIDE AP   CLEAR     62  51  67 W9        29.81R
OCEANSIDE HBR    N/A     61  55  79 W7        29.84R
VISTA            N/A     62  53  72 W3        29.79R
CARLSBAD       PTCLDY    61  52  72 VRB6      29.82R
DEL MAR          N/A     62  54  74 CALM      29.85R
LA JOLLA SCRIP   N/A     61  54  78 W3        29.82R
FALLBROOK        N/A     62  53  74 S6        29.79R
SAN MARCOS       N/A     60  49  67 NW5       29.80R
POWAY            N/A     61  51  67 CALM      29.83R

$$

EAST SAN DIEGO COUNTY

CITY           SKY/WX    TMP DP  RH WIND       PRES   REMARKS
RAMONA         CLEAR     57  46  66 W13       29.81R
SANTEE LAKES     N/A     61  52  71 CALM      29.81R
LA MESA          N/A     62  51  66 W3        29.76R
JAMUL            N/A     59  50  71 S2        29.82R
DESCANSO N       N/A     50  46  87 W3        29.73R
MT. LAGUNA OBS   N/A     40  40  99 W3        29.45
CAMPO            N/A     55  46  71 SW9       29.78R

$$

ORANGE COUNTY AND THE LOS ANGELES BASIN

CITY           SKY/WX    TMP DP  RH WIND       PRES   REMARKS
JOHN WAYNE AP  PTCLDY    65  46  50 W6        29.81R
LAKE FOREST FR   N/A     62  46  55 W3        29.71R
HUNTINGTON BCH   N/A     61  55  80 W8        29.84R
LOS ALAMITOS   FAIR      63  53  69 SW9       29.82R
FULLERTON      PTCLDY    67  44  43 VRB5      29.80R
LONG BEACH     CLEAR     64  52  64 VRB3      29.81R
L.A. AP        PTCLDY    62  48  60 SW8       29.80S
L.A. DOWNTOWN  PTCLDY    63  47  55 CALM      29.80R

$$

THE INLAND EMPIRE

CITY           SKY/WX    TMP DP  RH WIND       PRES   REMARKS
CORONA         CLOUDY    66  48  52 W10G17    29.78S
CHINO          MOCLDY    66  46  48 SW18      29.79R
ONTARIO        MOCLDY    64  46  52 W17G23    29.77S
SAN BERNARDINO MOCLDY    66  48  52 W9        29.78R
RIVERSIDE AP   CLOUDY    66  46  48 W12       29.78R
MORENO VALLEY    N/A     63  54  72 W5        27.92R
MARCH ARB      MOCLDY    63  48  58 W12       29.78R
HORSETHIEF CYN   N/A     66  44  45 N5        29.80R
PERRIS           N/A     64  50  61 W6          N/A
HEMET EAST       N/A     61  45  55 CALM      29.69R
FRENCH VALLEY  FAIR      61  48  63 S13       29.80R
TEMECULA         N/A     62  52  68 S7        29.75R

$$

SAN BERNARDINO AND RIVERSIDE COUNTY MOUNTAINS

CITY           SKY/WX    TMP DP  RH WIND       PRES   REMARKS
BIG BEAR AP    CLOUDY    37  36  93 N3        29.89R
PINE COVE        N/A     40  40  98 N2        29.81R

$$

SOUTHERN DESERT INCLUDING THE COACHELLA VALLEY

CITY           SKY/WX    TMP DP  RH WIND       PRES   REMARKS
PALM SPRINGS   MOCLDY    72  46  39 NW15      29.71R
THOUSAND PALMS   N/A     71  47  42 W16       29.68S
PALM DESERT      N/A     74  48  40 N5          N/A
THERMAL        CLOUDY    75  44  33 NW14      29.66R
BLYTHE         MOCLDY    70  45  40 N14       29.68R
IMPERIAL AP    PTCLDY    76  43  30 NW15      29.66R
EL CENTRO NAS  PTCLDY    75  40  28 NW16      29.69R
YUMA AZ        MOCLDY    74  42  31 N13       29.66
MEXICALI       PTCLDY    73  41  31 NW13      29.67

$$

UPPER DESERT

CITY           SKY/WX    TMP DP  RH WIND       PRES   REMARKS
VICTORVILLE AP MOCLDY    64  36  34 N12       29.82S
HESPERIA         N/A     61  40  46 NE6       29.91R
PALMDALE       MOCLDY    64  44  48 NW7       29.81S
LANCASTER      PTCLDY    68  38  33 N8        29.81R
EDWARDS AFB    MOCLDY    69  36  30 NE15      29.78R
DAGGETT        PTCLDY    66  42  41 N9        29.77F
29 PALMS N     PTCLDY    65  39  38 N16       29.82R
NEEDLES        PTCLDY    69  46  43 N15       29.70R

$$

REGIONAL REPORTS

CITY           SKY/WX    TMP DP  RH WIND       PRES   REMARKS
SANTA BARBARA  CLEAR     60  51  72 SE8       29.76S
SANDBERG       CLEAR     57  34  41 NW14      29.88R
LAS VEGAS NV   CLOUDY    57  49  74 W8        29.75F
PHOENIX AZ     CLOUDY    67  43  41 N15G23    29.66R
TIJUANA        PTCLDY    59  46  63 NW8       29.85R
ENSENADA NW      N/A     60  32  34 CALM      29.81R

$$

OFFSHORE ISLANDS

CITY           SKY/WX    TMP DP  RH WIND       PRES   REMARKS
CATALINA ARPT  CLEAR     56  45  66 W7        29.83R
SAN NICOLAS IS CLEAR     57  48  72 NW22G31   29.80F

$$

MARINE AND OFFSHORE BUOY REPORTS

STATION/POSITION SKY/WX   TEMP    WIND        PRES    SWELL
                          AIR SEA DIR/SP/G            HT/PER/DIR
                          (F)     (DEG/KT/KT) (MB)    (FT/S/D)
TANNER BANKS               58 58  300/ 16/ 21 1010.1F  10/320/10
S CLEMENTE BASIN           58 62  290/ 12/ 16 1009.7S   7/300/11
SAN NICOLAS IS.               58                N/A     5/310/11
SO. S. ROSA ISLA           56 55  300/ 17/ 21 1009.3F   7/290/11
W. S. BARBARA CH           54 53  300/ 14/ 17 1008.7F   7/300/10
M. S. BARBARA CH           58 57  270/ 16/ 19 1008.0F
S. MONICA BASIN            59 60  160/  4/  6 1009.1S   3/250/13
S PEDRO CHANNEL               62                N/A     2/280/11
OCEANSIDE OFFSHR              64                N/A     3/180/20
TORREY PINES OTR              64                N/A     3/280/11
LA JOLLA 1                 62 66  300/  8/ 10 1009.4R
SAN DIEGO BAY                 67              1009.8R
POINT LOMA SOUTH              64                N/A     3/190/20

$$





USA.gov is the U.S. government's official web portal to all federal, state and local government web resources and services.